Location: Kuffner-Sternwarte
(48.2130°N, 16.2960°E)
Time: 18:27:38
(UTC+02:00)

COROT - Pass Details

Date: 21 January 2018
Orbit: 600 x 889 km, 90.0° (Epoch: 21 April)

Event Time Altitude Azimuth Distance (km) Brightness Sun altitude
Rises 18:30:18 0° 235° (SW) 3,027 10.2 -18.6°
Reaches altitude 10° 18:35:25 10° 284° (WNW) 2,039 9.2 -19.4°
Maximum altitude 18:35:32 10° 285° (WNW) 2,037 9.2 -19.4°
Drops below altitude 10° 18:35:38 10° 287° (WNW) 2,036 9.2 -19.4°
Sets 18:40:36 0° 337° (NNW) 2,893 9.2 -20.3°
